星链-31955 (STARLINK-31955 )

导读

STARLINK-31955是美国太空探索技术公司星链卫星互联网项目的一颗卫星,于2024年6月1日发射。该卫星属于星链星座的组成部分,旨在为全球提供高速低延迟互联网服务,尤其覆盖偏远地区与网络基础设施匮乏区域,进一步扩充了星链星座的规模与服务覆盖能力。

Basic Information
目录编号:
59939
目录名称:
STARLINK-31955
国际标识:
2024-106T
轨道中心:
EARTH
卫星名称:
星链-31955
卫星全名:
星链-31955 (STARLINK-31955 )
卫星状态:
在轨 (已飞行746 天)
发射日期:
2024-06-01 UTC
国别 :
美国 (US)
星等 :
--
Orbit Information
数据来源 国际轨道数据 AOE轨道数据
星历时间 2026-06-17T12:28:11+0800
14小时前
查看轨道信息
2026-06-17T02:00:00+0800
1天前
查看轨道信息
半长轴 6861.182km 6861.212km
偏心率 0.0001311 0.0001124
轨道倾角 42.999° 43.000°
近地点辐角 277.074° 281.585°
升交点赤经 130.252° 132.722°
平近点角 82.996° 196.623°
近地点 482.145km 482.303km
远地点 483.945km 483.847km
周期 94.267分钟 94.267分钟
每日圈数 15.275814 15.275715
Detailed Information
固有亮度:
5
最大亮度:
1.5
卫星平台:
Starlink v2.0 mini
覆盖范围:
全球
运营商:
太空探索技术公司
运营商所在国:
美国
制造商(研发单位):
太空探索技术公司
制造商所在国:
美国
使用方式:
暂无
Satellite Introduction
星链(Starlink)计划是由太空探索技术公司(SpaceX)提出的一个巨型低轨卫星互联网星座项目,计划在2019年至2024年间在太空搭建由约1.2万颗卫星组成的“星链”网络,其中1584颗将部署在地球上空550千米处的近地轨道,并从2020年开始工作。该卫星仍在工作。
2D Orbit Map
3D Orbit Map
Orbit Altitude Analysis Chart
Orbit Inclination Analysis Chart
Orbit Comprehensive Analysis Chart
View Comprehensive Chart